Regional Weather Roundup
Issued by NWS

Home | Current Version | Previous Version | Graphics & Text | Print | Product List | Glossary On
Versions: 1 2 3 4 5 6 7 8 9 10 11 12 13 14 15 16 17 18 19 20 21 22 23 24 25 26 27 28 29 30 31 32 33 34 35 36 37 38 39 40 41 42 43 44 45 46 47 48 49 50
000
ASUS43 KLMK 251110
RWRKY
KENTUCKY REGIONAL WEATHER ROUNDUP
NATIONAL WEATHER SERVICE LOUISVILLE KY
700 AM EDT THU AUG 25 2016

NOTE "FAIR" INDICATES FEW OR NO CLOUDS BELOW 12,000 FEET
WITH NO SIGNIFICANT WEATHER AND/OR OBSTRUCTIONS TO VISIBILITY.

KYZ001>023-026-027-061>063-070>075-251200-
WESTERN AND SOUTH CENTRAL KENTUCKY

CITY           SKY/WX    TMP DP  RH WIND       PRES   REMARKS
PADUCAH        CLEAR     71  69  93 CALM      30.10R FOG
HENDERSON      CLEAR     73  70  88 S3        30.08S
OWENSBORO      CLEAR     74  74 100 S3        30.10S
HOPKINSVILLE   CLEAR     76  73  91 S5        30.13R
BOWLING GREEN  PTCLDY    76  72  87 S3        30.14R
GLASGOW        PTCLDY    73  73 100 CALM      30.14S
$$

KYZ024-025-028>034-038-045-046-053-251200-
NORTH CENTRAL KENTUCKY

CITY           SKY/WX    TMP DP  RH WIND       PRES   REMARKS
LOUISVILLE/SDF PTCLDY    79  73  82 S6        30.09S
LOUISVILLE/LOU CLEAR     78  72  81 S6        30.10S
FORT KNOX      CLEAR     73  72  96 S6        30.11R
$$

KYZ035>037-039>044-047>052-055>060-089>105-251200-
NORTHEAST KENTUCKY

CITY           SKY/WX    TMP DP  RH WIND       PRES   REMARKS
LEXINGTON      CLEAR     73  70  90 S7        30.14R
COVINGTON      PTCLDY    76  74  93 SW7       30.09R
FRANKFORT      CLEAR     75  71  87 SW7       30.12R
$$

KYZ054-064>069-076>088-106>120-251200-
SOUTHEAST KENTUCKY

CITY           SKY/WX    TMP DP  RH WIND       PRES   REMARKS
JACKSON        CLEAR     72  69  90 CALM      30.18S
LONDON         CLEAR     69  67  93 CALM      30.19R FOG
SOMERSET       CLEAR     70  70 100 CALM      30.18R
MIDDLESBORO    PTCLDY    66  66 100 CALM      30.21S
MONTICELLO     SUNNY    N/A N/A N/A W10       30.18S
$$





USA.gov is the U.S. government's official web portal to all federal, state and local government web resources and services.